ATLAS 5 CENTAUR R/B, 40978

Orbit data source: Space-Track

ATLAS 5 CENTAUR R/B, 40978 is space debris in LEO originally from an American launch on Thu, 08 Oct 2015 UTC via an ATLAS V 401 launch vehicle from the Air Force Western Test Range (AFWTR). Debris objects in space refer to the collection of defunct objects orbiting the Earth. Examples of debris include non-operational satellites, rocket bodies, and fragments generated from explosions, collisions, or faulty payload assembly.

Loading next visibility...
Identifier
40978, 2015-058Q
Orbit
LEO
Country
Flag of USUS
Related business
Manufacturer
USN PGS
Mission
Spacecraft
Bus & Motor
NPSCUL, Unknown motor
Mass
~2,065 kg wet, ~45 kg dry
Launch date (UTC)
2015-10-08 (10 years ago)
Launch vehicle
ATLAS V 401
Launch site
Air Force Western Test Range (AFWTR)
Object type
Payload
Rocket body
Debris
Shape & HBR
Unknown
Radar Cross Section
Large (>1 m²)

Expand to show TLE details & history
Last TLE update: 18 hours ago

TLE from 18 hours ago
0 ATLAS 5 CENTAUR R/B
1 40978U 15058Q   26036.83171981  .00012437  00000-0  79908-3 0  9995
2 40978  64.7671 196.8491 0110143 107.6254 253.6929 15.03801579 95463
Epoch: 2026-02-05T19:57Z
TLE epoch observation values (Epoch: 2026-02-05T19:57:40.591Z)
Latitude
-0.00007°
Longitude
121.45164°
Altitude
579.422 km
Speed
7.559 km/s
True Right ascension
13h 07m 23s
True Declination
0° 00' 00"
Sunlit
Object was in full shadow at epoch
Visualization orbit readout
Latitude
Unknown
Longitude
Unknown
Altitude
Unknown
Speed
Unknown
Apparent Right ascension
Unknown
Apparent Declination
Unknown
Sunlit
N/A
Visualization observer readout
Local Sidereal Time
16:24:56
Azimuth
Unknown
Elevation
Unknown
Doppler factor
Unknown
Orbital elements
Apogee altitude
630.096 km
Perigee altitude
477.397 km
Semi-major axis
6,931.884 km
Eccentricity
0.01101
Inclination
64.7671°
RAAN
196.8491°
Arg. of periapsis
107.6254°
True anomaly
252.48628°
Mean anomaly
253.6929°
Eccentric anomaly
253.08912°
Mean motion
3.76068 °/min
Orbital period
95.73 mins
BSTAR
0.00079908
Loading maneuver chart data...
Computing Atmospheric mass density...
Loading historical data...
Loading historical data...
Loading historical data...
Loading historical data...
Loading historical data...
Loading historical data...
Loading historical data...

Documentation

Showing up to 5 results
|